Terug naar catalogus

COSMOS 2567

ActiefNavigatieSSO
NORAD 55978·PAYLOAD·🇷🇺 Russia

Gelanceerd Mar 23, 2023 vanaf Plesetsk Cosmodrome

Loading…

Volgende Passages (komende 24 uur)

TLE

VersSource: Space-Track

Epoch: Sep 14, 2026, 14:01 UTC

1 55978U 23040A   26257.58461214  .00002896  00000-0  11762-3 0  9991
2 55978  97.3416 184.7358 0003053 106.5721 253.5852 15.25370337193688

Volg COSMOS 2567 in realtime met AllMySat

Download on the App Store